DW2913 Weather Reports


time (UTC)temp
F
wind
direction
speed
knots
gust
knots
rain 1hr
in
rain 24hr
in
rain mn
in
humidity
%
barometer
mb
20210224235711 43 190 5.2 7.0 0.00 0.00 0.00 91 1031.1
20210224235425 42 199 5.2 7.0 0.00 0.00 0.00 93 1031.1
20210224234717 41 192 3.5 6.1 0.00 0.00 0.00 95 1031.1
20210224234214 40 180 0.9 0.0 0.00 0.00 0.00 96 1031.1
20210224233714 40 160 0.0 0.0 0.00 0.00 0.00 96 1031.1
20210224233210 39 160 0.0 0.0 0.00 0.00 0.00 96 1031.2
20210224232922 39 160 0.0 0.0 0.00 0.00 0.00 96 1031.1
20210224232214 39 160 0.0 0.0 0.00 0.00 0.00 96 1031.1
20210224231733 39 160 0.0 0.0 0.00 0.00 0.00 96 1031.1
20210224231209 40 160 0.0 0.0 0.00 0.00 0.00 96 1031.1
20210224230707 40 160 0.0 0.0 0.00 0.00 0.00 96 1031.1
20210224230212 40 160 0.0 0.0 0.00 0.00 0.00 96 1031.1
20210224225709 40 160 0.0 0.0 0.00 0.00 0.00 95 1031.2
20210224225215 40 160 0.0 0.0 0.00 0.00 0.00 95 1031.2
20210224224708 40 160 0.0 0.0 0.00 0.00 0.00 95 1031.1
20210224224213 41 160 0.0 3.5 0.00 0.00 0.00 95 1031.2
20210224223708 41 160 0.0 3.5 0.00 0.00 0.00 95 1031.2
20210224223209 41 160 0.0 5.2 0.00 0.00 0.00 95 1031.2
20210224222929 40 160 0.9 5.2 0.00 0.00 0.00 95 1031.2
20210224222212 41 160 1.7 5.2 0.00 0.00 0.00 95 1031.2
20210224221708 41 160 2.6 5.2 0.00 0.00 0.00 94 1031.2
20210224221209 41 160 2.6 4.3 0.00 0.00 0.00 94 1031.2
20210224220707 42 160 0.9 4.3 0.00 0.00 0.00 94 1031.3
20210224220211 42 160 0.0 0.0 0.00 0.00 0.00 95 1031.3
20210224215709 41 160 0.0 0.0 0.00 0.00 0.00 95 1031.3
20210224215414 41 160 0.0 0.0 0.00 0.00 0.00 96 1031.3
20210224214716 40 160 0.0 0.0 0.00 0.00 0.00 95 1031.3
20210224214212 40 160 0.0 0.0 0.00 0.00 0.00 96 1031.4
20210224213708 41 160 0.0 0.0 0.00 0.00 0.00 95 1031.4
20210224213216 41 160 0.0 0.0 0.00 0.00 0.00 95 1031.4
20210224212907 41 160 0.0 0.0 0.00 0.00 0.00 95 1031.5
20210224212210 41 160 0.0 0.0 0.00 0.00 0.00 95 1031.7
20210224211712 41 160 0.0 0.0 0.00 0.00 0.00 95 1031.6
20210224211212 41 160 0.0 0.0 0.00 0.00 0.00 95 1031.5
20210224210711 42 160 0.0 0.0 0.00 0.00 0.00 95 1031.6
20210224210211 42 160 0.0 0.9 0.00 0.00 0.00 95 1031.6
20210224205714 42 160 0.0 0.9 0.00 0.00 0.00 95 1031.6
20210224205318 42 160 0.0 3.5 0.00 0.00 0.00 95 1031.6
20210224204708 42 156 0.0 3.5 0.00 0.00 0.00 95 1031.7
20210224204211 42 155 0.9 3.5 0.00 0.00 0.00 95 1031.7
20210224203714 42 155 0.9 3.5 0.00 0.00 0.00 95 1031.7
20210224203214 42 155 0.0 3.5 0.00 0.00 0.00 95 1031.6
20210224202855 42 155 0.9 3.5 0.00 0.00 0.00 94 1031.7
20210224202210 43 155 0.9 3.5 0.00 0.00 0.00 94 1031.7
20210224201713 43 155 0.0 3.5 0.00 0.00 0.00 93 1031.6
20210224201213 44 155 0.0 3.5 0.00 0.00 0.00 93 1031.6
20210224200713 45 155 0.9 3.5 0.00 0.00 0.00 94 1031.6
20210224200212 45 155 0.9 4.3 0.00 0.00 0.00 94 1031.6
20210224195711 45 155 0.9 4.3 0.00 0.00 0.00 95 1031.7
20210224195358 45 155 0.9 4.3 0.00 0.00 0.00 95 1031.6
20210224194708 44 155 1.7 4.3 0.00 0.00 0.00 95 1031.7
20210224194221 44 155 1.7 4.3 0.00 0.00 0.00 94 1031.7
20210224193708 45 155 0.9 4.3 0.00 0.00 0.00 94 1031.6
20210224193209 45 155 0.9 5.2 0.00 0.00 0.00 94 1031.7
20210224192909 45 155 0.9 5.2 0.00 0.00 0.00 94 1031.8
20210224192212 45 155 1.7 5.2 0.00 0.00 0.00 94 1031.7
20210224191708 45 155 2.6 5.2 0.00 0.00 0.00 94 1031.8
20210224191210 46 154 1.7 0.0 0.00 0.00 0.00 93 1031.9
20210224190718 46 98 0.0 0.0 0.00 0.00 0.00 93 1031.8
20210224190209 46 80 0.0 0.0 0.00 0.00 0.00 93 1031.9
20210224185713 46 80 0.0 0.0 0.00 0.00 0.00 92 1031.9
20210224185353 47 80 0.0 0.0 0.00 0.00 0.00 91 1031.9
20210224184710 47 80 0.0 0.0 0.00 0.00 0.00 89 1031.9
20210224184212 48 76 0.0 0.0 0.00 0.00 0.00 88 1032.0
20210224183710 49 76 0.0 0.0 0.00 0.00 0.00 87 1032.1
20210224183210 49 76 0.0 0.0 0.00 0.00 0.00 86 1032.1
20210224182834 50 76 0.0 0.0 0.00 0.00 0.00 86 1032.2
20210224182210 50 76 0.0 0.0 0.00 0.00 0.00 84 1032.2
20210224181710 50 76 0.0 0.0 0.00 0.00 0.00 84 1032.2
20210224181211 51 76 0.0 0.0 0.00 0.00 0.00 85 1032.2
20210224180710 51 76 0.0 0.0 0.00 0.00 0.00 84 1032.2
20210224180217 51 76 0.0 0.0 0.00 0.00 0.00 84 1032.2
20210224175709 51 76 0.0 0.0 0.00 0.00 0.00 84 1032.2
20210224175328 51 76 0.0 0.0 0.00 0.00 0.00 84 1032.3
20210224174709 52 76 0.0 0.0 0.00 0.00 0.00 83 1032.2
20210224174213 53 76 0.0 0.0 0.00 0.00 0.00 81 1032.3
20210224173709 55 76 0.0 0.0 0.00 0.00 0.00 74 1032.2
20210224173212 56 76 0.0 0.0 0.00 0.00 0.00 74 1032.2
20210224172806 56 76 0.0 0.0 0.00 0.00 0.00 72 1032.2
20210224172211 57 76 0.0 0.0 0.00 0.00 0.00 71 1032.2
20210224171753 57 76 0.0 0.0 0.00 0.00 0.00 69 1032.2
20210224171209 58 76 0.0 0.0 0.00 0.00 0.00 67 1032.2
20210224170708 58 76 0.0 0.0 0.00 0.00 0.00 66 1032.2
20210224170210 59 76 0.0 0.0 0.00 0.00 0.00 66 1032.2
20210224165710 59 76 0.0 0.0 0.00 0.00 0.00 65 1032.3
20210224165307 60 76 0.0 0.0 0.00 0.00 0.00 66 1032.2
20210224164711 60 76 0.0 0.0 0.00 0.00 0.00 66 1032.2
20210224164211 60 76 0.0 0.0 0.00 0.00 0.00 65 1032.1
20210224163708 61 76 0.0 0.0 0.00 0.00 0.00 63 1032.2
20210224163209 61 76 0.0 0.0 0.00 0.00 0.00 62 1032.2
20210224162729 62 76 0.0 0.0 0.00 0.00 0.00 62 1032.2
20210224162209 62 76 0.0 1.7 0.00 0.00 0.00 61 1032.2
20210224161709 62 76 0.0 1.7 0.00 0.00 0.00 60 1032.2
20210224161212 62 76 0.0 1.7 0.00 0.00 0.00 58 1032.2
20210224160707 63 76 0.0 1.7 0.00 0.00 0.00 57 1032.2
20210224160214 63 76 0.0 0.9 0.00 0.00 0.00 57 1032.1
20210224155709 62 76 0.0 0.9 0.00 0.00 0.00 57 1032.2
20210224155334 62 76 0.0 2.6 0.00 0.00 0.00 56 1032.2
20210224154725 63 76 0.0 2.6 0.00 0.00 0.00 56 1032.2
20210224154213 63 76 0.0 0.9 0.00 0.00 0.00 55 1032.1
20210224153709 63 73 0.0 0.9 0.00 0.00 0.00 54 1032.1
20210224153211 63 73 0.0 0.9 0.00 0.00 0.00 53 1032.2
20210224152722 63 73 0.0 0.9 0.00 0.00 0.00 54 1032.3
20210224152211 64 73 0.0 1.7 0.00 0.00 0.00 54 1032.3
20210224151720 64 73 0.0 1.7 0.00 0.00 0.00 52 1032.4
20210224151216 64 73 0.0 3.5 0.00 0.00 0.00 51 1032.4
20210224150712 64 73 0.0 3.5 0.00 0.00 0.00 48 1032.5
20210224150212 64 87 0.0 5.2 0.00 0.00 0.00 51 1032.5
20210224145710 64 87 0.9 5.2 0.00 0.00 0.00 48 1032.5
20210224145314 64 98 0.9 5.2 0.00 0.00 0.00 50 1032.6
20210224144709 64 90 1.7 5.2 0.00 0.00 0.00 48 1032.6
20210224144211 65 90 1.7 5.2 0.00 0.00 0.00 50 1032.6
20210224143708 65 87 1.7 5.2 0.00 0.00 0.00 48 1032.6
20210224143212 65 84 1.7 5.2 0.00 0.00 0.00 47 1032.7
20210224142904 65 66 0.9 5.2 0.00 0.00 0.00 48 1032.7
20210224142209 65 61 1.7 5.2 0.00 0.00 0.00 48 1032.7
20210224141708 66 61 1.7 5.2 0.00 0.00 0.00 47 1032.8
20210224141210 66 67 0.9 6.1 0.00 0.00 0.00 51 1032.8
20210224140707 65 52 0.9 6.1 0.00 0.00 0.00 51 1032.9
20210224140210 65 84 0.9 6.1 0.00 0.00 0.00 50 1032.8
20210224135710 65 113 1.7 6.1 0.00 0.00 0.00 51 1032.9
20210224135213 66 53 1.7 8.7 0.00 0.00 0.00 52 1032.8
20210224134716 66 43 1.7 8.7 0.00 0.00 0.00 52 1032.8
20210224134212 67 60 2.6 8.7 0.00 0.00 0.00 51 1032.8
20210224133709 66 61 3.5 8.7 0.00 0.00 0.00 52 1032.8
20210224133209 66 56 1.7 4.3 0.00 0.00 0.00 53 1032.9
20210224132939 65 82 0.0 4.3 0.00 0.00 0.00 54 1033.0
20210224132213 66 80 0.0 4.3 0.00 0.00 0.00 54 1033.1
20210224131710 66 342 0.9 4.3 0.00 0.00 0.00 58 1033.1
20210224131211 66 342 1.7 6.1 0.00 0.00 0.00 58 1033.2
20210224130709 67 26 0.9 6.1 0.00 0.00 0.00 56 1033.2
20210224130215 66 27 0.9 4.3 0.00 0.00 0.00 56 1033.2
20210224125712 66 27 1.7 4.3 0.00 0.00 0.00 54 1033.3
20210224125445 66 68 1.7 4.3 0.00 0.00 0.00 52 1033.3
20210224124735 66 325 0.9 4.3 0.00 0.00 0.00 56 1033.3
20210224124212 66 347 0.9 4.3 0.00 0.00 0.00 56 1033.4
20210224123707 66 348 0.0 4.3 0.00 0.00 0.00 55 1033.4
20210224123209 65 326 0.9 4.3 0.00 0.00 0.00 55 1033.5
20210224122934 64 330 0.9 4.3 0.00 0.00 0.00 58 1033.6
20210224122210 65 316 0.9 3.5 0.00 0.00 0.00 58 1033.6
20210224121712 65 5 0.0 3.5 0.00 0.00 0.00 57 1033.8
20210224121210 64 18 0.0 4.3 0.00 0.00 0.00 57 1033.8
20210224120707 65 18 0.9 4.3 0.00 0.00 0.00 56 1033.9
20210224120210 66 18 0.9 3.5 0.00 0.00 0.00 54 1034.0
20210224115710 65 10 0.9 3.5 0.00 0.00 0.00 55 1033.9
20210224115350 65 38 0.9 2.6 0.00 0.00 0.00 55 1034.0
20210224114717 65 47 0.0 2.6 0.00 0.00 0.00 55 1034.0
20210224114220 64 48 0.0 0.0 0.00 0.00 0.00 53 1034.2
20210224113713 64 47 0.0 0.0 0.00 0.00 0.00 56 1034.2
20210224113211 65 44 0.0 3.5 0.00 0.00 0.00 54 1034.3
20210224112726 64 44 0.0 3.5 0.00 0.00 0.00 57 1034.3
20210224112214 64 48 0.9 4.3 0.00 0.00 0.00 54 1034.4
20210224111711 64 47 0.9 4.3 0.00 0.00 0.00 56 1034.5
20210224111212 64 49 0.9 0.0 0.00 0.00 0.00 57 1034.4
20210224110710 64 145 0.0 0.0 0.00 0.00 0.00 56 1034.5
20210224110225 63 165 0.0 3.5 0.00 0.00 0.00 61 1034.6
20210224105712 62 165 0.0 3.5 0.00 0.00 0.00 61 1034.5
20210224105320 62 165 0.0 3.5 0.00 0.00 0.00 62 1034.7
20210224104712 63 165 0.0 3.5 0.00 0.00 0.00 58 1034.7
20210224104213 64 165 0.0 0.9 0.00 0.00 0.00 61 1034.7
20210224103709 61 164 0.0 0.9 0.00 0.00 0.00 66 1034.8
20210224103212 60 164 0.0 0.0 0.00 0.00 0.00 64 1034.9
20210224102812 60 164 0.0 0.0 0.00 0.00 0.00 66 1034.8
20210224102213 60 164 0.0 0.9 0.00 0.00 0.00 67 1034.8
20210224101711 59 164 0.0 0.9 0.00 0.00 0.00 69 1034.8
20210224101212 59 164 0.0 0.9 0.00 0.00 0.00 68 1034.8
20210224100710 59 165 0.0 0.9 0.00 0.00 0.00 69 1034.9
20210224100213 58 164 0.0 1.7 0.00 0.00 0.00 73 1034.9
20210224095718 57 164 0.0 1.7 0.00 0.00 0.00 74 1035.0
20210224095317 57 164 0.0 0.0 0.00 0.00 0.00 74 1035.0
20210224094710 57 164 0.0 0.0 0.00 0.00 0.00 73 1035.1
20210224094214 57 164 0.0 4.3 0.00 0.00 0.00 72 1035.2
20210224093709 57 164 0.0 4.3 0.00 0.00 0.00 74 1035.4
20210224093213 56 165 0.0 4.3 0.00 0.00 0.00 77 1035.3
20210224092725 55 165 0.9 4.3 0.00 0.00 0.00 78 1035.4
20210224092211 54 165 0.9 5.2 0.00 0.00 0.00 81 1035.5
20210224091709 54 164 0.0 5.2 0.00 0.00 0.00 82 1035.5
20210224091211 53 164 0.0 5.2 0.00 0.00 0.00 85 1035.5
20210224090712 52 164 1.7 5.2 0.00 0.00 0.00 85 1035.6
20210224090213 52 165 1.7 0.0 0.00 0.00 0.00 81 1035.6
20210224085710 52 163 0.0 0.0 0.00 0.00 0.00 85 1035.6
20210224085328 51 163 0.0 0.0 0.00 0.00 0.00 85 1035.6
20210224084719 51 163 0.0 0.0 0.00 0.00 0.00 85 1035.6
20210224084212 50 163 0.0 0.0 0.00 0.00 0.00 86 1035.7
20210224083709 49 163 0.0 0.0 0.00 0.00 0.00 85 1035.7
20210224083211 49 163 0.0 0.0 0.00 0.00 0.00 86 1035.7
20210224082815 49 163 0.0 0.0 0.00 0.00 0.00 89 1035.7
20210224082212 47 163 0.0 0.0 0.00 0.00 0.00 91 1035.7
20210224081710 46 162 0.0 0.0 0.00 0.00 0.00 94 1035.7
20210224081211 46 162 0.0 0.0 0.00 0.00 0.00 95 1035.7
20210224080709 45 162 0.0 0.0 0.00 0.00 0.00 95 1035.8
20210224080213 44 162 0.0 0.0 0.00 0.00 0.00 95 1035.7
20210224075712 42 162 0.0 0.0 0.00 0.00 0.00 95 1035.8
20210224075416 41 162 0.0 0.0 0.00 0.00 0.00 95 1035.9
20210224074710 40 161 0.0 0.0 0.00 0.00 0.00 95 1035.8
20210224074216 40 162 0.0 0.0 0.00 0.00 0.00 96 1035.8
20210224073712 39 162 0.0 0.0 0.00 0.00 0.00 96 1035.8
20210224073215 38 162 0.0 0.0 0.00 0.00 0.00 96 1035.8
20210224072818 38 161 0.0 0.0 0.00 0.00 0.00 96 1035.8
20210224072211 38 161 0.0 0.0 0.00 0.00 0.00 96 1035.9
20210224071710 38 161 0.0 0.0 0.00 0.00 0.00 96 1035.9
20210224071212 38 161 0.0 0.0 0.00 0.00 0.00 96 1035.9
20210224070709 37 162 0.0 0.0 0.00 0.00 0.00 96 1035.9
20210224070215 37 162 0.0 0.0 0.00 0.00 0.00 96 1035.9
20210224065712 37 162 0.0 0.0 0.00 0.00 0.00 96 1035.9
20210224065414 37 161 0.0 0.0 0.00 0.00 0.00 96 1035.9
20210224064712 37 161 0.0 0.0 0.00 0.00 0.00 96 1035.8
20210224064216 37 161 0.0 0.0 0.00 0.00 0.00 96 1035.9
20210224063709 37 161 0.0 0.0 0.00 0.00 0.00 96 1035.9
20210224063210 37 161 0.0 0.0 0.00 0.00 0.00 96 1035.9
20210224062801 37 162 0.0 0.0 0.00 0.00 0.00 96 1035.9
20210224062215 37 161 0.0 0.0 0.00 0.00 0.00 96 1035.9
20210224061711 37 161 0.0 0.0 0.00 0.00 0.00 96 1035.9
20210224061213 37 161 0.0 0.0 0.00 0.00 0.00 96 1035.9
20210224060713 37 166 0.0 0.0 0.00 0.00 0.00 96 1035.8
20210224060212 37 166 0.0 0.0 0.00 0.00 0.00 96 1035.9
20210224055710 37 166 0.0 0.0 0.00 0.00 0.00 96 1035.9
20210224055332 37 166 0.0 0.0 0.00 0.00 0.00 96 1035.8
20210224054714 37 166 0.0 0.0 0.00 0.00 0.00 96 1035.9
20210224054217 37 166 0.0 0.0 0.00 0.00 0.00 96 1036.0
20210224053713 37 166 0.0 0.0 0.00 0.00 0.00 96 1036.0
20210224053212 37 166 0.0 0.0 0.00 0.00 0.00 96 1035.9
20210224052917 37 167 0.0 0.0 0.00 0.00 0.00 96 1036.0
20210224052215 38 167 0.0 0.0 0.00 0.00 0.00 96 1036.0
20210224051711 38 167 0.0 0.0 0.00 0.00 0.00 96 1036.0
20210224051212 38 167 0.0 0.0 0.00 0.00 0.00 96 1036.0
20210224050708 38 167 0.0 0.0 0.00 0.00 0.00 96 1035.9
20210224050214 37 167 0.0 0.0 0.00 0.00 0.00 96 1036.0
20210224045710 37 167 0.0 0.0 0.00 0.00 0.00 96 1036.0
20210224045227 37 167 0.0 0.0 0.00 0.00 0.00 96 1035.9
20210224044709 37 167 0.0 0.0 0.00 0.00 0.00 96 1036.1
20210224044218 37 167 0.0 0.0 0.00 0.00 0.00 96 1036.0
20210224043717 37 167 0.0 0.0 0.00 0.00 0.00 96 1036.1
20210224043211 37 167 0.0 0.0 0.00 0.00 0.00 96 1036.1
20210224042723 37 167 0.0 0.0 0.00 0.00 0.00 96 1036.1
20210224042217 37 167 0.0 0.0 0.00 0.00 0.00 96 1036.2
20210224041713 38 167 0.0 0.0 0.00 0.00 0.00 96 1036.1
20210224041214 37 167 0.0 0.0 0.00 0.00 0.00 96 1036.1
20210224040710 37 167 0.0 0.0 0.00 0.00 0.00 96 1036.1
20210224040212 38 167 0.0 0.0 0.00 0.00 0.00 96 1036.1
20210224035710 38 167 0.0 0.0 0.00 0.00 0.00 96 1036.1
20210224035242 38 167 0.0 0.0 0.00 0.00 0.00 96 1036.1
20210224034716 39 167 0.0 0.0 0.00 0.00 0.00 96 1036.1
20210224034214 39 167 0.0 0.0 0.00 0.00 0.00 96 1036.1
20210224033710 39 167 0.0 0.0 0.00 0.00 0.00 96 1036.1
20210224033208 39 167 0.0 0.0 0.00 0.00 0.00 96 1036.1
20210224032757 38 168 0.0 0.0 0.00 0.00 0.00 96 1036.1
20210224032211 38 168 0.0 0.0 0.00 0.00 0.00 96 1036.1
20210224031708 38 168 0.0 0.0 0.00 0.00 0.00 96 1036.1
20210224031213 38 168 0.0 0.0 0.00 0.00 0.00 96 1036.1
20210224030707 38 168 0.0 0.0 0.00 0.00 0.00 96 1036.0
20210224030209 38 168 0.0 0.0 0.00 0.00 0.00 96 1036.0
20210224025709 38 168 0.0 0.0 0.00 0.00 0.00 96 1036.1
20210224025325 38 168 0.0 0.0 0.00 0.00 0.00 96 1035.9
20210224024710 38 168 0.0 0.0 0.00 0.00 0.00 96 1036.0
20210224024213 38 168 0.0 0.0 0.00 0.00 0.00 96 1036.1
20210224023708 38 168 0.0 0.0 0.00 0.00 0.00 96 1036.0
20210224023211 38 168 0.0 0.0 0.00 0.00 0.00 96 1036.1
20210224022854 39 168 0.0 0.0 0.00 0.00 0.00 95 1036.0
20210224022210 39 168 0.0 5.2 0.00 0.00 0.00 95 1036.0
20210224021709 39 168 0.9 5.2 0.00 0.00 0.00 95 1036.0
20210224021210 39 168 1.7 5.2 0.00 0.00 0.00 95 1035.9
20210224020708 39 166 2.6 5.2 0.00 0.00 0.00 95 1036.0
20210224020210 40 165 0.9 4.3 0.00 0.00 0.00 94 1035.9
20210224015710 40 166 0.9 4.3 0.00 0.00 0.00 94 1036.0
20210224015211 40 167 0.9 5.2 0.00 0.00 0.00 94 1036.1
20210224014713 40 167 1.7 5.2 0.00 0.00 0.00 94 1036.1
20210224014212 41 167 2.6 5.2 0.00 0.00 0.00 94 1036.1
20210224013710 41 166 2.6 5.2 0.00 0.00 0.00 94 1036.2
20210224013208 41 166 0.9 0.0 0.00 0.00 0.00 94 1036.1
20210224012916 41 170 0.0 0.0 0.00 0.00 0.00 94 1036.1
20210224012212 41 171 0.0 0.0 0.00 0.00 0.00 94 1036.1
20210224011710 41 171 0.0 0.0 0.00 0.00 0.00 95 1036.1
20210224011210 41 171 0.0 0.0 0.00 0.00 0.00 94 1036.1
20210224010710 41 171 0.0 0.0 0.00 0.00 0.00 95 1036.1
20210224010211 41 170 0.0 6.1 0.00 0.00 0.00 94 1036.1
20210224005712 41 171 0.9 6.1 0.00 0.00 0.00 94 1036.1
20210224005330 41 172 2.6 6.1 0.00 0.00 0.00 94 1036.1
20210224004709 41 175 3.5 6.1 0.00 0.00 0.00 99 1036.2
20210224004217 41 173 1.7 5.2 0.00 0.00 0.00 95 1036.2
20210224003708 41 172 0.9 5.2 0.00 0.00 0.00 99 1036.2
20210224003219 41 174 0.9 5.2 0.00 0.00 0.00 94 1036.2
20210224002753 42 177 0.9 5.2 0.00 0.00 0.00 94 1036.2
20210224002209 42 178 0.0 4.3 0.00 0.00 0.00 94 1036.2
20210224001711 42 178 0.9 4.3 0.00 0.00 0.00 94 1036.2
20210224001211 42 178 1.7 5.2 0.00 0.00 0.00 94 1036.2
20210224000713 42 178 3.5 6.1 0.00 0.00 0.00 95 1036.1
20210224000210 42 178 4.3 6.1 0.00 0.00 0.00 95 1036.1